{"data":{"norad_id":57708,"epoch":"2026-09-20T22:28:09.043392Z","epoch_age_seconds":93708,"freshness":"FRESH","line1":"1 57708U 23129L   26263.93621578  .00000141  00000+0  14641-4 0  9999","line2":"2 57708  43.0040  95.2002 0001297 276.2045  83.8659 15.27576975170543","mean_motion":15.27576975,"eccentricity":0.0001297,"inclination_deg":43.004,"raan_deg":95.2002,"arg_perigee_deg":276.2045,"mean_anomaly_deg":83.8659,"bstar":1.4641e-5,"rev_number":17054,"period_min":94.266935386349,"perigee_km":482.16825698137,"apogee_km":483.94805100431,"semimajor_km":6861.1951539928,"source":"CELESTRAK","updated_at":"2026-09-21T09:00:33.675412Z"}}